Location: St. Malo Provincial Park
(49.3214°N, 96.9305°W)
Time: 13:56:59
(UTC-05:00)

Daily predictions for brighter satellites

Satellite Brightness Start Highest point End
(mag) Time Altitude Azimuth Time Altitude Azimuth Time Altitude Azimuth
Spot 2 Rocket 4.4 20:39:40 10° S 20:44:38 53° W 20:49:37 10° NNW
Cosmos 2084 4.4 20:41:29 10° NW 20:45:19 44° SW 20:49:21 10° SSE
Cosmos 1975 3.0 20:42:04 10° S 20:46:03 52° E 20:50:03 10° NNE
CZ-2D R/B 3.3 20:43:24 10° SSE 20:47:17 77° ENE 20:51:12 10° N
Cosmos 2322 Rocket 4.0 20:47:00 10° E 20:47:35 10° E 20:48:11 10° E
SL-24 R/B - RUBIN 2 4.5 20:44:40 10° SSW 20:50:35 62° ESE 20:57:06 10° NE
Cosmos 1937 Rocket 3.6 20:45:39 10° NNW 20:50:57 70° ENE 20:56:14 10° SSE
SPOT 5 4.3 20:48:29 10° ESE 20:52:02 21° ENE 20:55:28 10° NNE
Cosmos 2297 Rocket 3.2 20:48:14 10° NW 20:53:42 50° WSW 20:59:07 10° S
Envisat 3.8 20:50:36 10° SE 20:55:08 34° ENE 20:59:40 10° N
Cosmos 1626 Rocket 3.7 20:51:51 10° NNW 20:56:16 80° W 21:00:37 10° S
Cosmos 990 Rocket 4.1 20:53:11 10° NNW 20:58:25 62° ENE 21:03:36 10° SE
H-2A R/B 3.4 20:55:13 10° ESE 20:58:26 22° ENE 21:01:43 10° N
USA 186 1.3 20:56:00 10° SSE 20:58:54 82° ENE 21:01:37 10° N
Cosmos 2298 Rocket 4.4 20:54:15 10° NNW 20:59:33 71° WSW 21:04:51 10° SSE
Cosmos 1515 3.7 20:59:01 10° N 21:02:54 87° W 21:06:44 10° S
Cosmos 1455 Rocket 4.0 21:00:56 10° SSW 21:05:11 52° WNW 21:09:29 10° N
Cosmos 1605 Rocket 4.1 20:58:54 10° S 21:05:14 84° W 21:11:30 10° N
CZ-4 DEB 3.2 21:03:36 10° SE 21:06:35 42° ENE 21:09:37 10° N
Cosmos 2227 4.3 21:00:51 10° NNW 21:06:37 65° ENE 21:12:17 10° SE
ALOS 2.8 21:02:04 10° S 21:06:43 64° W 21:11:23 10° NNW
Cosmos 1602 Rocket 4.1 21:02:31 10° NNW 21:06:57 63° W 21:11:19 10° S
Cosmos 1758 Rocket 4.3 21:05:45 10° N 21:09:42 33° ENE 21:13:13 12° SE
Helios 1B rocket 4.0 21:07:17 10° N 21:11:10 40° WNW 21:15:01 10° SW
ERS-1 Rocket 3.1 21:09:38 10° SSE 21:14:33 59° ENE 21:19:31 10° N
BREEZE-M DEB (TANK) 1.8 21:13:00 10° W 21:15:00 50° SSW 21:17:24 15° ESE
Cosmos 2100 Rocket 4.1 21:10:48 10° SSE 21:16:54 57° E 21:22:57 10° NNE
YAOGAN 11 4.2 21:12:44 10° SSE 21:17:11 66° ENE 21:21:35 10° N
Tiangong 1 3.4 21:18:07 10° SW 21:19:50 14° SSW 21:21:31 10° SSE
Cosmos 1743 2.9 21:23:08 10° S 21:26:57 53° E 21:30:47 10° NNE
Cosmos 1763 Rocket 3.8 21:22:15 10° S 21:27:01 42° ESE 21:31:48 10° NE
Cosmos 1939 Rocket 3.0 21:23:17 11° SSE 21:27:09 61° ENE 21:31:17 10° N
H-2A R/B 3.9 21:25:29 11° E 21:27:52 14° NE 21:30:29 10° NNE
Cosmos 1697 Rocket 2.6 21:25:32 10° SSW 21:31:11 84° ESE 21:36:52 10° NNE
Cosmos 2061 Rocket 4.0 21:27:12 10° S 21:33:25 68° E 21:39:37 10° NNE
Cosmos 1459 Rocket 3.9 21:34:05 10° S 21:40:08 77° E 21:46:18 10° NNE
Cosmos 1125 Rocket 3.6 21:35:40 10° NNW 21:40:50 60° ENE 21:44:17 21° SE
ARGOS 4.0 21:39:04 19° ESE 21:42:03 33° ENE 21:46:51 10° N
USA 215 3.8 21:37:03 11° E 21:43:04 53° NNE 21:49:22 10° WNW
Cosmos 1606 Rocket 3.6 21:39:36 10° S 21:43:57 61° E 21:48:22 10° NNE
Cosmos 2058 Rocket 3.6 21:40:58 17° SSE 21:44:06 41° E 21:48:21 10° NNE
SL-16 R/B 3.0 21:41:43 14° SSE 21:45:30 29° ESE 21:50:17 10° NE
SPOT 1/Viking Rocket 4.3 21:44:10 22° ESE 21:46:57 37° ENE 21:51:43 10° N
Cosmos 468 Rocket 4.3 21:42:57 10° SSW 21:48:04 69° WNW 21:53:13 10° NNE
Cosmos 1725 Rocket 4.3 21:42:59 12° SSE 21:48:25 46° E 21:54:20 10° NNE
ASTEX 1 3.7 21:43:50 10° NNE 21:48:40 46° E 21:51:52 20° SSE
RESURS DK-1 4.3 21:46:11 10° NW 21:49:40 26° WSW 21:53:08 10° SSW
MetOp-B 4.3 21:46:30 21° SE 21:50:01 56° ENE 21:55:15 10° N
Cosmos 2098 Rocket 4.0 21:45:01 10° SSE 21:51:16 52° E 21:56:20 10° NNE
Cosmos 841 Rocket 3.5 21:47:09 10° S 21:52:17 61° ESE 21:57:26 10° NNE
Cosmos 1980 Rocket 2.1 21:49:59 10° SSW 21:55:40 81° ESE 22:01:25 10° NNE
Cosmos 540 Rocket 4.3 21:55:49 26° ESE 21:56:49 28° E 22:01:10 10° NE
Cosmos 2360 Rocket 4.0 21:58:32 13° ENE 21:58:32 13° ENE 21:59:51 10° ENE
Cosmos 1842 3.1 21:57:17 10° N 22:01:12 88° E 22:03:12 28° S
Cosmos 1814 Rocket 4.5 21:56:49 10° SW 22:02:07 64° WNW 22:07:23 10° NNE
PSLV R/B 3.4 22:04:10 47° E 22:04:20 48° ENE 22:07:19 10° N
ATLAS CENTAUR R/B 4.5 22:02:22 10° NW 22:04:49 14° NNW 22:07:12 10° NNE
Cosmos 1707 4.3 22:02:56 10° NNE 22:06:00 21° ENE 22:06:04 21° ENE
Cosmos 1726 Rocket 3.5 22:01:47 10° S 22:06:10 86° E 22:10:38 10° N
Cosmos 1666 2.5 22:04:42 27° S 22:06:36 70° E 22:10:25 10° NNE
YAOGAN 6 2.6 22:05:28 41° SE 22:06:36 65° ENE 22:10:19 10° N
Cosmos 2233 Rocket 4.4 22:06:51 27° SE 22:09:39 42° E 22:15:28 10° NNE
Cosmos 372 Rocket 4.0 22:06:22 10° NNW 22:11:30 67° ENE 22:13:41 34° SE
Cosmos 1238 4.0 22:08:59 10° N 22:12:08 75° E 22:12:21 69° ESE
Cosmos 2263 Rocket 2.2 22:10:22 10° NNW 22:15:56 66° ENE 22:18:16 35° SE
Lacrosse 5 4.2 22:14:41 10° W 22:17:26 15° WSW 22:20:11 10° SSW
Cosmos 332 Rocket 4.1 22:16:29 37° SE 22:17:35 43° ESE 22:22:14 10° NE
Cosmos 1340 4.5 22:15:58 10° NNW 22:19:19 30° W 22:22:27 11° SSW
Cosmos 371 Rocket 4.1 22:20:21 31° E 22:20:21 31° E 22:24:02 10° NE
SL-08 R/B 4.4 22:15:47 10° S 22:22:00 87° W 22:28:11 10° N
CZ-4 SHROUD 3.2 22:26:35 76° N 22:26:35 76° N 22:29:29 10° NNW
SL-19 R/B 4.3 22:21:20 10° NNE 22:26:39 51° E 22:28:11 39° SSE
Landsat 7 4.3 22:26:52 39° E 22:27:48 44° ENE 22:32:19 10° N
SPOT 5 3.2 22:27:03 26° S 22:29:44 62° WSW 22:34:24 10° NNW
SWAS 4.4 22:25:48 10° SSW 22:30:08 88° WNW 22:34:31 10° NNE
Cosmos 2322 Rocket 2.1 22:25:05 11° SSW 22:30:29 64° ESE 22:36:04 10° NNE
Cosmos 2016 Rocket 4.3 22:25:33 10° SSW 22:31:38 65° WNW 22:37:52 10° N
Envisat 4.2 22:29:51 13° SSW 22:34:05 39° W 22:38:51 10° NNW
Cosmos 2228 2.9 22:32:39 40° S 22:34:09 89° W 22:38:28 10° N
H-2A R/B 2.9 22:32:10 24° SSW 22:34:14 43° W 22:38:15 10° NNW
MetOp-A 4.4 22:33:27 26° S 22:36:25 63° WSW 22:41:46 10° NNW
CZ-4B R/B 3.5 22:33:21 10° NNE 22:37:59 48° E 22:38:03 47° ESE
Nimbus 7 Rocket 4.5 22:32:22 10° NNE 22:38:29 83° WNW 22:44:33 10° SSW
Cosmos 1441 Rocket 4.3 22:35:10 10° N 22:38:15 32° NE 22:38:15 32° NE
Genesis I 3.0 22:38:12 10° NW 22:42:11 87° NE 22:42:17 84° ESE
Terra 2.3 22:42:37 42° E 22:43:04 43° ENE 22:47:36 10° N
Meteor 2-5 Rocket 3.8 22:37:20 10° N 22:43:17 73° ENE 22:45:04 46° SSE
Meteor 2-9 Rocket 4.4 22:39:17 12° SSW 22:44:25 68° WNW 22:49:47 10° N
Cosmos 1375 Rocket 4.4 22:42:33 10° SSW 22:49:07 78° SE 22:55:45 10° NE
Meteor 1-24 Rocket 4.1 22:44:14 10° N 22:50:09 52° ENE 22:51:23 45° ESE
Cosmos 405 Rocket 3.0 22:47:17 10° NNW 22:50:59 58° W 22:51:07 58° WSW
CZ-4 R/B 4.0 22:50:55 10° NNE 22:55:20 55° E 22:55:20 55° E
Cosmos 1464 Rocket 4.3 22:58:08 45° ESE 22:58:52 47° E 23:04:53 10° NNE
Cosmos 2346 Rocket 4.5 22:55:30 10° N 23:01:46 81° W 23:03:53 44° S
COSMOS 2428 4.4 23:06:40 18° ENE 23:06:40 18° ENE 23:08:39 10° NE
Cosmos 921 Rocket 4.3 23:02:16 10° N 23:05:50 30° NE 23:05:50 30° NE
H-2A R/B 1.7 23:06:07 74° SE 23:06:34 83° ENE 23:11:31 10° NNW
GP-B 3.2 23:02:07 10° N 23:06:09 65° NE 23:06:09 65° NE
Okean 3 Rocket 3.6 23:04:41 10° N 23:08:47 69° NE 23:08:47 69° NE
Cosmos 2278 Rocket 3.6 23:05:12 10° NNW 23:09:59 27° NE 23:11:26 24° ENE
SL-08 RB Rocket 4.1 23:10:20 51° SW 23:10:58 56° W 23:15:32 10° NNW
Cosmos 1538 Rocket 4.4 23:12:53 50° ENE 23:12:53 50° ENE 23:17:22 10° NNE
Spot 4 3.9 23:19:10 66° NE 23:19:10 66° NE 23:23:42 10° N
ARGOS 4.0 23:20:35 34° SW 23:22:11 43° W 23:27:20 10° NNW
Cosmos 1076 Rocket 4.4 23:20:42 10° N 23:23:47 41° NNE 23:23:47 41° NNE
USA 215 3.1 23:24:24 58° SE 23:25:53 84° SW 23:32:28 10° WNW
Lacrosse 4 Rocket 3.8 23:29:23 16° NE 23:29:23 16° NE 23:30:24 10° NE
Cosmos 1844 Rocket 2.9 23:21:25 10° NNW 23:26:55 57° ENE 23:27:15 56° ENE
CZ-4C R/B 4.0 23:28:18 60° WNW 23:28:18 60° WNW 23:32:15 10° NNW
SL-16 R/B 2.8 23:23:44 10° SW 23:29:17 55° NW 23:34:54 10° NNE
CARTOSAT-1 4.1 23:33:01 58° WNW 23:33:01 58° WNW 23:36:45 10° NNW
BREEZE-M DEB (TANK) 4.3 23:22:04 10° WNW 23:36:55 44° SW 23:37:50 41° SSW
Cosmos 1844 4.0 23:31:37 10° NNW 23:37:13 53° NE 23:37:27 53° ENE
Cosmos 1891 Rocket 4.4 23:37:47 68° ESE 23:38:10 70° E 23:44:36 10° NNE
Cosmos 540 Rocket 4.4 23:35:33 25° WSW 23:38:12 46° WNW 23:43:11 10° NNE
Cosmos 2360 Rocket 2.1 23:40:15 80° ENE 23:40:15 80° ENE 23:45:43 10° NNE
Cosmos 1980 Rocket 4.4 23:35:48 10° W 23:40:22 24° NW 23:44:59 10° NNE
Cosmos 1707 4.3 23:38:29 10° NNW 23:41:19 32° WNW 23:41:19 32° WNW
IGS 5A 4.4 23:43:14 45° NW 23:43:14 45° NW 23:46:25 10° NNW
ATLAS CENTAUR R/B 4.3 23:43:25 10° NNW 23:45:50 14° NNE 23:48:11 10° NE
Meteor 1-22 Rocket 4.1 23:47:21 84° NE 23:47:21 84° NE 23:52:49 10° NNE
In-Cosmos 22 4.2 23:43:06 10° N 23:48:21 72° NE 23:48:21 72° NE
Cosmos 1766 Rocket 4.4 23:49:28 10° N 23:52:45 49° N 23:52:45 49° N
